This demonstration page uses our WeatherBlox Daily Observations layout. Learn more.

Left ArrowRight Arrow

36.17497, -115.13722

Hourly Observations for July 6, 2022

Temp ( °F °C ) Dew Point ( °F °C ) Humidity (%) Winds ( mph kmh ) Pressure ( in mb ) Visibility ( mi km ) Precip ( " mm )
12:53 am 00:53 Clear 89 31.7 40 4.4 18 18 S 8 13 29.79 1009 10 16 0.00 0.00
1:53 am 01:53 Clear 88 31.1 41 5 19 19 S 8 13 29.80 1009 10 16 0.00 0.00
2:53 am 02:53 Clear 85 29.4 42 5.6 22 22 SSE 7 11 29.80 1009 10 16 0.00 0.00
3:53 am 03:53 Clear 82 27.8 42 5.6 24 24 SE 8 13 29.81 1010 10 16 0.00 0.00
4:53 am 04:53 Clear 82 27.8 43 6.1 25 25 S 3 6 29.83 1010 10 16 0.00 0.00
5:53 am 05:53 Sunny 79 26.1 42 5.6 27 27 Calm 29.85 1011 10 16 0.00 0.00
6:53 am 06:53 Sunny 82 27.8 42 5.6 24 24 E 7 11 29.86 1011 10 16 0.00 0.00
7:53 am 07:53 Sunny 86 30 46 7.8 25 25 SE 9 15 29.88 1012 10 16 0.00 0.00
8:53 am 08:53 Sunny 89 31.7 44 6.7 21 21 SE 10 17 29.88 1012 10 16 0.00 0.00
9:53 am 09:53 Sunny 91 32.8 45 7.2 20 20 SE 14 22 29.88 1012 10 16 0.00 0.00
10:53 am 10:53 Sunny 94 34.4 43 6.1 17 17 SSE 8 13 29.88 1012 10 16 0.00 0.00
11:53 am 11:53 Sunny 96 35.6 37 2.8 13 13 ESE 14 22 29.86 1011 10 16 0.00 0.00
12:53 pm 12:53 Sunny 99 37.2 31 -0.6 9 9 SE 17 28 29.83 1010 10 16 0.00 0.00
1:53 pm 13:53 Sunny 101 38.3 30 -1.1 8 8 SSE 18 30 29.81 1010 10 16 0.00 0.00
2:53 pm 14:53 Sunny 101 38.3 23 -5 6 6 SE 24 39 29.80 1009 10 16 0.00 0.00
3:53 pm 15:53 Sunny 102 38.9 22 -5.6 6 6 SE 25 41 29.77 1008 10 16 0.00 0.00
4:53 pm 16:53 Sunny 101 38.3 20 -6.7 5 5 SSE 12 19 29.76 1008 10 16 0.00 0.00
5:53 pm 17:53 Sunny 102 38.9 19 -7.2 5 5 SSE 15 24 29.75 1008 10 16 0.00 0.00
6:53 pm 18:53 Sunny 100 37.8 21 -6.1 6 6 SE 18 30 29.75 1008 10 16 0.00 0.00
7:53 pm 19:53 Sunny 97 36.1 29 -1.7 9 9 SE 20 31 29.76 1008 10 16 0.00 0.00
8:53 pm 20:53 Clear 96 35.6 34 1.1 11 11 SW 8 13 29.78 1009 10 16 0.00 0.00
9:53 pm 21:53 Clear 93 33.9 35 1.7 13 13 SSE 7 11 29.80 1009 10 16 0.00 0.00
10:53 pm 22:53 Clear 91 32.8 37 2.8 15 15 S 12 19 29.81 1010 10 16 0.00 0.00
11:53 pm 23:53 Clear 90 32.2 37 2.8 15 15 S 8 13 29.82 1010 10 16 0.00 0.00

Powered by AerisWeather